[[{"header":{"parameterUnit":"m.s-1","parameterCategory":1,"la1":30.2991,"la2":30.254,"lo1":-89.0895,"lo2":-89.0444,"dy":0.0017,"dx":0.0017,"nx":28,"ny":28,"refTime":"2023-11-04T21:00:00:Z","depth":0,"parameterNumber":2,"parameterNumberName":"U-component_of_WINDS"},"data":[0,0,0,0,0,0,0,0,0,0,0,0,0,0,0,0,0,0,0,0,0,0,0,0,0,0,0,0,0,0,0,0,0,0,0,0,0,0,0,0,0,0,0,0,0,0,0,0,0,0,0,0,0,0,0,0,0,0,1.1963,1.1964,0,1.2073,1.2075,1.2076,1.2086,1.2085,1.2083,1.2082,1.2196,1.22,1.2204,0,0,0,0,0,0,0,0,0,0,0,0,0,1.1761,1.1765,1.1963,1.1965,1.1966,1.2073,1.2075,1.2076,1.2086,1.2085,1.2083,1.2082,1.2195,1.22,1.2205,0,0,0,0,0,0,0,0,0,0,0,0,0,1.1858,1.1766,1.1963,1.1984,1.1987,1.2073,1.2075,1.2077,1.2086,1.2085,1.2083,1.2081,1.2193,1.2199,1.2205,1.2279,0,0,1.2224,1.2227,0,0,0,0,0,0,0,0,1.1852,1.1865,1.1979,1.1982,1.1986,1.2064,1.2045,1.2145,1.2087,1.2049,1.2082,1.208,1.2154,1.2163,1.2188,1.2284,1.2289,1.2225,1.2229,1.2231,1.2233,0,0,0,0,0,0,0,1.1846,1.1861,1.2007,1.1981,1.1985,1.1987,1.1999,1.2064,1.211,1.2052,1.2053,1.2066,1.2155,1.2182,1.219,1.2291,1.2225,1.223,1.2234,1.2236,1.2451,1.2453,0,0,0,0,0,0,1.1835,1.1855,1.2003,1.201,1.1913,1.1993,1.2006,1.2041,1.2109,1.2118,1.2067,1.2066,1.2172,1.2183,1.2194,1.2283,1.2231,1.2237,1.2241,1.2449,1.2452,1.2454,0,0,0,0,0,0,1.1831,1.1848,1.1999,1.1933,1.1952,1.1998,1.2037,1.2044,1.207,1.2121,1.2129,1.2085,1.2171,1.2186,1.2257,1.2287,1.224,1.2246,1.2447,1.245,1.2453,1.2462,0,0,0,0,0,0,1.1825,1.1846,1.1875,1.1933,1.1956,1.206,1.2039,1.2047,1.2081,1.208,1.214,1.2148,1.2171,1.2248,1.2263,1.2295,1.225,1.2444,1.2448,1.2452,1.2459,1.2465,1.247,0,0,0,0,0,1.1818,1.1874,1.1876,1.1894,1.1992,1.2061,1.2074,1.2098,1.2083,1.2112,1.2144,1.2146,1.2282,1.2255,1.2273,1.2306,1.2443,1.2447,1.2451,1.2457,1.2464,1.247,0,0,0,0,0,0,1.1818,1.1882,1.1885,1.1962,1.2006,1.2063,1.21,1.2106,1.2155,1.2152,1.2181,1.2194,1.2264,1.2293,1.2262,1.238,1.2361,1.2369,1.2359,1.2366,1.2371,1.2362,1.2256,0,0,0,0,0,1.1827,1.1878,1.1931,1.1994,1.2016,1.2054,1.2085,1.21,1.2147,1.2166,1.2203,1.2249,1.2301,1.2336,1.2387,1.2464,1.2476,1.2496,1.2501,1.2505,1.2511,1.2552,1.2561,1.2468,1.2468,1.2468,0,0,1.1846,1.1887,1.1918,1.1995,1.2031,1.2082,1.207,1.2125,1.2163,1.2174,1.2243,1.2272,1.2325,1.2399,1.2434,1.2425,1.254,1.2511,1.2514,1.2518,1.2558,1.2566,1.2574,1.2472,1.2471,1.247,0,0,1.1907,1.1944,1.1999,1.2035,1.2089,1.2114,1.2128,1.2184,1.2203,1.2273,1.2281,1.2328,1.2419,1.2455,1.2485,1.2559,1.2563,1.2576,1.2603,1.2642,1.2649,1.2656,1.268,1.2689,1.2582,1.2582,1.2582,0,1.1923,1.2001,1.2027,1.2082,1.2115,1.2126,1.2182,1.2216,1.2284,1.2307,1.2297,1.2409,1.2446,1.2527,1.2545,1.257,1.2585,1.2568,1.2646,1.2653,1.266,1.2683,1.2692,1.2583,1.2583,1.2583,1.2583,0,1.2018,1.2072,1.2111,1.2175,1.2213,1.2268,1.2301,1.2336,1.2348,1.2374,1.2444,1.2488,1.2548,1.2569,1.2582,1.2652,1.2645,1.264,1.2621,1.2669,1.2691,1.2701,1.2584,1.2584,1.2584,1.2583,0,0,1.2081,1.2159,1.2172,1.2201,1.2262,1.2304,1.2359,1.2417,1.2445,1.2493,1.2539,1.2615,1.261,1.2645,1.2662,1.2697,1.275,1.2688,1.2689,1.2696,1.2828,1.283,1.284,1.2753,1.2755,1.2757,1.2823,0,1.2147,1.2245,1.2269,1.2353,1.2402,1.2414,1.2462,1.2504,1.253,1.2575,1.2605,1.2657,1.2648,1.2669,1.2704,1.2736,1.2776,1.2732,1.2795,1.2797,1.2779,1.2852,1.2854,1.2914,1.2832,1.2834,1.2835,0,1.2236,1.2284,1.2372,1.2425,1.2447,1.2489,1.2543,1.2587,1.2635,1.2651,1.2689,1.2703,1.276,1.2739,1.2818,1.2787,1.2815,1.2834,1.2837,1.2842,1.2817,1.2857,1.2934,1.2942,1.2849,1.2848,1.2847,0,1.227,1.2357,1.242,1.2445,1.2509,1.2538,1.2566,1.2612,1.2645,1.2693,1.2714,1.2768,1.2797,1.2839,1.2866,1.2849,1.2942,1.2924,1.2956,1.2956,1.2974,1.2972,1.3055,1.2996,1.2995,1.2995,1.2995,0,1.234,1.2392,1.2436,1.2475,1.2534,1.2562,1.262,1.2648,1.2689,1.2733,1.2748,1.2789,1.2824,1.287,1.2892,1.2953,1.2967,1.2981,1.2985,1.2978,1.2976,1.2995,1.2991,1.2998,1.2997,1.2997,1.2996,0,1.2387,1.2418,1.2488,1.2542,1.2557,1.2599,1.2645,1.2683,1.2709,1.2765,1.278,1.2821,1.2876,1.2908,1.2977,1.2992,1.3059,1.3063,1.3042,1.3044,1.3073,1.3069,1.317,1.3183,1.3117,1.3117,1.3118,0,1.2428,1.2468,1.2527,1.2557,1.2586,1.2635,1.2668,1.2697,1.2731,1.2788,1.2819,1.2874,1.2919,1.3006,1.3042,1.3095,1.3099,1.3131,1.3107,1.3098,1.3097,1.3093,1.3097,1.3134,1.3135,1.3135,1.3136,0,1.2496,1.251,1.2557,1.2609,1.2648,1.2691,1.2734,1.2758,1.2794,1.2831,1.2887,1.2922,1.2992,1.3046,1.3102,1.3131,1.3139,1.3143,1.3153,1.3145,1.313,1.3136,1.305,1.314,1.314,1.3139,1.3139,1.3139,1.254,1.2576,1.2623,1.2674,1.2709,1.2748,1.2786,1.2817,1.2864,1.2922,1.2937,1.2995,1.3041,1.3117,1.3147,1.3192,1.3187,1.3202,1.3205,1.3208,1.3208,1.3124,1.3203,1.3203,1.3203,1.3203,1.3203,0,1.2607,1.2638,1.2685,1.2744,1.2784,1.2788,1.2836,1.2869,1.292,1.2962,1.3006,1.3069,1.3122,1.3162,1.3216,1.3245,1.325,1.3258,1.3255,1.3261,1.3211,1.3195,1.3253,1.3253,1.3253,1.3253,1.3253,1.3253,1.2647,1.2707,1.2726,1.2804,1.2835,1.2891,1.2917,1.2953,1.2987,1.3057,1.31,1.3126,1.3167,1.3224,1.3272,1.3283,1.3301,1.3308,1.3319,1.3271,1.3265,1.326,1.3246,1.3313,1.3313,1.3366,1.3366,1.3367]},{"header":{"parameterUnit":"m.s-1","parameterCategory":1,"la1":30.2991,"la2":30.254,"lo1":-89.0895,"lo2":-89.0444,"dy":0.0017,"dx":0.0017,"nx":28,"ny":28,"refTime":"2023-11-04T21:00:00:Z","depth":0,"parameterNumber":3,"parameterNumberName":"V-component_of_WINDS"},"data":[0,0,0,0,0,0,0,0,0,0,0,0,0,0,0,0,0,0,0,0,0,0,0,0,0,0,0,0,0,0,0,0,0,0,0,0,0,0,0,0,0,0,0,0,0,0,0,0,0,0,0,0,0,0,0,0,0,0,2.4564,2.4563,0,2.4484,2.4483,2.4482,2.4421,2.442,2.4419,2.4419,2.4332,2.4331,2.4329,0,0,0,0,0,0,0,0,0,0,0,0,0,2.4656,2.4655,2.4564,2.4563,2.4562,2.4484,2.4483,2.4482,2.4421,2.442,2.4419,2.4419,2.4333,2.4331,2.4329,0,0,0,0,0,0,0,0,0,0,0,0,0,2.46,2.4654,2.4564,2.4522,2.4517,2.4485,2.4483,2.4482,2.4421,2.442,2.4419,2.4418,2.4334,2.4331,2.4329,2.433,0,0,2.4321,2.4319,0,0,0,0,0,0,0,0,2.4604,2.4597,2.4529,2.4525,2.4519,2.4462,2.4484,2.4431,2.4421,2.4457,2.4419,2.4418,2.4376,2.437,2.4356,2.4326,2.4322,2.432,2.4319,2.4318,2.4317,0,0,0,0,0,0,0,2.4608,2.46,2.4532,2.4528,2.4522,2.4505,2.4496,2.4474,2.4422,2.4454,2.4449,2.4441,2.4373,2.4359,2.4354,2.4321,2.432,2.4318,2.4316,2.4315,2.4284,2.4285,0,0,0,0,0,0,2.4619,2.4604,2.4535,2.453,2.456,2.4504,2.4494,2.4481,2.4422,2.4413,2.4442,2.4439,2.4364,2.4357,2.4351,2.4346,2.4318,2.4315,2.4314,2.4283,2.4284,2.4285,0,0,0,0,0,0,2.4621,2.4613,2.4538,2.4565,2.4555,2.4503,2.4489,2.448,2.4466,2.4413,2.4403,2.4438,2.4363,2.4354,2.4335,2.4342,2.4314,2.4312,2.4282,2.4284,2.4285,2.4339,0,0,0,0,0,0,2.4624,2.4614,2.4616,2.4566,2.4553,2.4526,2.449,2.4479,2.4462,2.4457,2.4407,2.4397,2.4362,2.4339,2.4333,2.4338,2.4309,2.4281,2.4283,2.4284,2.4336,2.4341,2.4346,0,0,0,0,0,2.4627,2.4633,2.4616,2.4608,2.4554,2.4526,2.4519,2.4479,2.4463,2.4463,2.4429,2.4399,2.4343,2.4338,2.433,2.4335,2.4281,2.4282,2.4284,2.4333,2.434,2.4346,0,0,0,0,0,0,2.4684,2.4626,2.4606,2.4597,2.4567,2.4516,2.4514,2.4488,2.4461,2.4457,2.4407,2.4396,2.4382,2.4356,2.4352,2.4331,2.4308,2.4308,2.4348,2.4354,2.4359,2.4365,2.4307,0,0,0,0,0,2.4696,2.4679,2.4629,2.4625,2.4612,2.4566,2.4552,2.4524,2.4491,2.4477,2.4442,2.4409,2.4383,2.4368,2.4342,2.4332,2.4319,2.4331,2.4337,2.4341,2.4341,2.4331,2.4336,2.429,2.429,2.429,0,0,2.4718,2.4685,2.4678,2.4636,2.4609,2.4591,2.4555,2.4539,2.4524,2.4474,2.4454,2.4427,2.4386,2.4371,2.4363,2.435,2.4351,2.4343,2.4347,2.4345,2.4334,2.4338,2.4342,2.4292,2.4291,2.4291,0,0,2.4751,2.4726,2.4719,2.4693,2.4654,2.4624,2.4622,2.4575,2.4555,2.4534,2.4496,2.4477,2.4435,2.4408,2.4388,2.441,2.438,2.4403,2.4428,2.442,2.4423,2.4426,2.4431,2.4434,2.4403,2.4403,2.4403,0,2.4784,2.4758,2.4718,2.4703,2.4685,2.4641,2.4632,2.4608,2.4562,2.455,2.4536,2.4482,2.4452,2.4428,2.4434,2.442,2.4415,2.4407,2.4426,2.4429,2.4431,2.4435,2.4437,2.4406,2.4406,2.4405,2.4405,0,2.4799,2.4781,2.478,2.4738,2.4719,2.4708,2.4664,2.465,2.4624,2.4594,2.4572,2.4535,2.4499,2.4492,2.4466,2.4465,2.4457,2.4436,2.4411,2.4439,2.4442,2.4443,2.441,2.4409,2.4408,2.4407,0,0,2.4863,2.48,2.48,2.478,2.4733,2.4717,2.4703,2.467,2.4658,2.4628,2.4612,2.4578,2.4557,2.4535,2.4505,2.4498,2.4514,2.4477,2.4475,2.4483,2.4507,2.4522,2.4525,2.4496,2.4496,2.4496,2.451,0,2.4887,2.486,2.4824,2.4808,2.4789,2.4747,2.4734,2.4703,2.4675,2.4653,2.4621,2.4597,2.4573,2.4559,2.455,2.4515,2.4518,2.4513,2.4478,2.4477,2.4487,2.4527,2.4543,2.4558,2.4511,2.4511,2.4511,0,2.491,2.4883,2.4867,2.4821,2.4811,2.4801,2.4766,2.4748,2.471,2.469,2.4666,2.4634,2.4614,2.4593,2.4563,2.456,2.4544,2.4524,2.4524,2.4517,2.4495,2.4519,2.4562,2.4564,2.4513,2.4513,2.4513,0,2.4956,2.4916,2.49,2.4884,2.4831,2.4824,2.4801,2.4763,2.4745,2.4715,2.4702,2.467,2.4651,2.4626,2.4585,2.4574,2.4558,2.4535,2.4538,2.4539,2.4535,2.4536,2.4574,2.4529,2.4529,2.4529,2.4528,0,2.4984,2.4975,2.4919,2.491,2.4897,2.4855,2.4843,2.4816,2.4783,2.4765,2.4726,2.471,2.4658,2.4635,2.4603,2.4581,2.4574,2.4555,2.4546,2.4557,2.4559,2.4544,2.4541,2.4529,2.4529,2.4529,2.4529,0,2.5033,2.4996,2.4975,2.4927,2.4914,2.4907,2.4864,2.4851,2.4821,2.4799,2.4791,2.4743,2.4714,2.4671,2.4629,2.4607,2.4589,2.4576,2.4602,2.4596,2.4602,2.4601,2.463,2.463,2.4587,2.4588,2.4588,0,2.5052,2.5044,2.4995,2.4981,2.496,2.4939,2.492,2.4878,2.486,2.4817,2.4809,2.4777,2.4749,2.4704,2.4663,2.463,2.4614,2.4627,2.4609,2.462,2.4611,2.4612,2.4609,2.463,2.4631,2.4632,2.4632,0,2.509,2.5072,2.5048,2.5018,2.4998,2.4971,2.4942,2.4933,2.4884,2.4865,2.4836,2.4814,2.4771,2.4739,2.47,2.4673,2.4644,2.4639,2.4637,2.4647,2.4662,2.4652,2.4611,2.4637,2.4637,2.4637,2.4636,2.4636,2.5122,2.5113,2.5077,2.5051,2.5025,2.5,2.4985,2.4954,2.4929,2.4892,2.4868,2.4839,2.48,2.4745,2.472,2.4695,2.4683,2.4682,2.4681,2.468,2.4683,2.4668,2.4688,2.4688,2.4688,2.4688,2.4687,0,2.5156,2.5131,2.5108,2.507,2.5049,2.5026,2.4993,2.4976,2.4952,2.492,2.4893,2.4858,2.4827,2.4784,2.4749,2.4737,2.4722,2.4729,2.4728,2.4722,2.4698,2.4701,2.4741,2.4741,2.4741,2.4741,2.4741,2.4741,2.5171,2.5153,2.5131,2.5098,2.5073,2.5046,2.5028,2.5003,2.4977,2.494,2.4915,2.4888,2.4851,2.4812,2.4781,2.4769,2.4757,2.4767,2.4751,2.4729,2.4724,2.4719,2.4722,2.4766,2.4766,2.4777,2.4777,2.4777]}]]